DAL512 EGPH-KMSP

Flight info

Callsign DAL512
Flight time N/A
Altitude 24000
Route GOSAM DCT GOW Q602 BRUCE/N0480F340 DCT TIR DCT ETILO/M084F340 DCT 59N020W 5930N03000W 59N040W 58N050W DCT DORYY/N0477F360 DCT JOVIE DCT VANSI/N0479F380 DCT PEMLU DCT YQT DCT DLH DCT COLDD BAINY4
Aircraft A332/H-SDE3GHIJ2J3J5M1RVWXY/LB2D1

Departure

Time 2026-04-25 20:14
Airport Edinburgh Airport (EGPH)

Arrival

Time N/A
Airport Minneapolis–Saint Paul International Airport / Wold–Chamberlain Field (KMSP)
Time Latitude Longitude Altitude Speed Heading
2026-04-25 19:44 55.94794 -3.36611 120 ft 0 kts 117°
2026-04-25 20:02 55.94799 -3.36626 120 ft 4 kts 116°
2026-04-25 20:03 55.94810 -3.36670 120 ft 4 kts 111°
2026-04-25 20:03 55.94819 -3.36715 120 ft 4 kts 102°
2026-04-25 20:03 55.94820 -3.36760 118 ft 4 kts 65°
2026-04-25 20:03 55.94812 -3.36778 120 ft 0 kts 359°
2026-04-25 20:06 55.94848 -3.36779 118 ft 9 kts 356°
2026-04-25 20:06 55.94902 -3.36818 115 ft 8 kts 326°
2026-04-25 20:07 55.94923 -3.36899 119 ft 7 kts 268°
2026-04-25 20:07 55.94887 -3.37016 116 ft 18 kts 240°
2026-04-25 20:07 55.94810 -3.37244 115 ft 22 kts 238°
2026-04-25 20:07 55.94733 -3.37466 116 ft 21 kts 238°
2026-04-25 20:08 55.94658 -3.37683 116 ft 20 kts 238°
2026-04-25 20:08 55.94581 -3.37906 118 ft 21 kts 238°
2026-04-25 20:08 55.94506 -3.38125 116 ft 20 kts 240°
2026-04-25 20:08 55.94436 -3.38338 115 ft 19 kts 239°
2026-04-25 20:09 55.94368 -3.38541 116 ft 19 kts 239°
2026-04-25 20:09 55.94308 -3.38722 119 ft 16 kts 239°
2026-04-25 20:09 55.94281 -3.38829 119 ft 0 kts 285°
2026-04-25 20:10 55.94295 -3.38862 115 ft 7 kts 312°
2026-04-25 20:10 55.94311 -3.38886 119 ft 0 kts 323°
2026-04-25 20:10 55.94323 -3.38901 119 ft 4 kts 323°
2026-04-25 20:11 55.94337 -3.38919 119 ft 0 kts 326°
2026-04-25 20:11 55.94338 -3.38919 119 ft 1 kts 326°
2026-04-25 20:11 55.94370 -3.38957 113 ft 10 kts 327°
2026-04-25 20:11 55.94421 -3.38941 118 ft 8 kts 39°
2026-04-25 20:12 55.94442 -3.38889 118 ft 0 kts 58°
2026-04-25 20:13 55.94459 -3.38839 120 ft 24 kts 58°
2026-04-25 20:13 55.94665 -3.38243 114 ft 86 kts 59°
2026-04-25 20:13 55.95072 -3.37044 114 ft 138 kts 58°
2026-04-25 20:13 55.95625 -3.35419 460 ft 154 kts 59°
2026-04-25 20:14 55.96174 -3.33817 1174 ft 150 kts 55°
2026-04-25 20:14 55.96908 -3.32534 1849 ft 148 kts 36°
2026-04-25 20:14 55.97749 -3.31475 2353 ft 148 kts 36°
2026-04-25 20:14 55.98584 -3.30332 2567 ft 157 kts 43°
2026-04-25 20:15 55.99458 -3.29032 2717 ft 171 kts 35°
2026-04-25 20:15 56.00622 -3.28230 2844 ft 191 kts
2026-04-25 20:15 56.01979 -3.28678 2978 ft 212 kts 333°
2026-04-25 20:15 56.03045 -3.30645 3088 ft 236 kts 294°
2026-04-25 20:16 56.03251 -3.33592 3278 ft 254 kts 261°
2026-04-25 20:16 56.02865 -3.36732 3727 ft 262 kts 255°
2026-04-25 20:16 56.02387 -3.39897 4312 ft 264 kts 255°
2026-04-25 20:16 56.01916 -3.43062 4969 ft 264 kts 255°
2026-04-25 20:17 56.01443 -3.46245 5566 ft 267 kts 256°
2026-04-25 20:17 56.00967 -3.49493 5916 ft 272 kts 257°
2026-04-25 20:17 56.00497 -3.52766 5991 ft 271 kts 257°
2026-04-25 20:17 56.00035 -3.56015 5999 ft 268 kts 257°
2026-04-25 20:18 55.99577 -3.59227 6215 ft 266 kts 256°
2026-04-25 20:18 55.99123 -3.62422 6314 ft 265 kts 259°
2026-04-25 20:18 55.99026 -3.65695 6621 ft 265 kts 275°
2026-04-25 20:18 55.99263 -3.68983 7246 ft 267 kts 278°
2026-04-25 20:19 55.99548 -3.72270 7970 ft 268 kts 279°
2026-04-25 20:19 55.99832 -3.75524 8608 ft 270 kts 279°
2026-04-25 20:19 56.00122 -3.78844 9256 ft 271 kts 279°
2026-04-25 20:19 56.00411 -3.82194 9861 ft 274 kts 279°
2026-04-25 20:20 56.00700 -3.85578 10438 ft 278 kts 279°
2026-04-25 20:20 56.01011 -3.89080 10700 ft 293 kts 283°
2026-04-25 20:20 56.01528 -3.92694 10934 ft 308 kts 285°
2026-04-25 20:20 56.02129 -3.96476 11166 ft 323 kts 287°
2026-04-25 20:21 56.02794 -4.00404 11390 ft 338 kts 287°
2026-04-25 20:21 56.03509 -4.04492 11600 ft 351 kts 288°
2026-04-25 20:21 56.04260 -4.08721 11911 ft 361 kts 288°
2026-04-25 20:21 56.05026 -4.13037 12328 ft 367 kts 288°
2026-04-25 20:22 56.05796 -4.17409 12823 ft 370 kts 288°
2026-04-25 20:22 56.06309 -4.20335 13144 ft 372 kts 287°
2026-04-25 20:22 56.07336 -4.26277 13807 ft 375 kts 287°
2026-04-25 20:22 56.08109 -4.30755 14276 ft 378 kts 287°
2026-04-25 20:23 56.08885 -4.35264 14739 ft 380 kts 287°
2026-04-25 20:23 56.09667 -4.39807 15185 ft 383 kts 287°
2026-04-25 20:23 56.10455 -4.44386 15636 ft 386 kts 287°
2026-04-25 20:23 56.11246 -4.48986 16088 ft 388 kts 287°
2026-04-25 20:24 56.12046 -4.53617 16529 ft 390 kts 287°
2026-04-25 20:24 56.12837 -4.58215 16937 ft 393 kts 286°
2026-04-25 20:24 56.13651 -4.62971 17363 ft 395 kts 286°
2026-04-25 20:24 56.14456 -4.67701 17765 ft 398 kts 286°
2026-04-25 20:25 56.15261 -4.72464 18182 ft 400 kts 286°
2026-04-25 20:25 56.16067 -4.77246 18576 ft 402 kts 285°
2026-04-25 20:25 56.16867 -4.82011 18931 ft 405 kts 285°
2026-04-25 20:25 56.17681 -4.86867 19294 ft 407 kts 285°
2026-04-25 20:26 56.18503 -4.91749 19636 ft 411 kts 285°
2026-04-25 20:26 56.19327 -4.96677 19991 ft 413 kts 285°
2026-04-25 20:26 56.20150 -5.01635 20358 ft 415 kts 285°
2026-04-25 20:26 56.20972 -5.06622 20703 ft 417 kts 285°
2026-04-25 20:27 56.21797 -5.11632 21040 ft 419 kts 285°
2026-04-25 20:27 56.22626 -5.16675 21379 ft 421 kts 285°
2026-04-25 20:27 56.23454 -5.21732 21726 ft 422 kts 285°
2026-04-25 20:27 56.24285 -5.26814 22053 ft 424 kts 285°
2026-04-25 20:28 56.25115 -5.31915 22362 ft 426 kts 285°
2026-04-25 20:28 56.25945 -5.37047 22677 ft 428 kts 285°
2026-04-25 20:28 56.26777 -5.42203 23010 ft 429 kts 285°
2026-04-25 20:28 56.27608 -5.47376 23337 ft 431 kts 285°
2026-04-25 20:29 56.28442 -5.52560 23672 ft 432 kts 285°
2026-04-25 20:29 56.29278 -5.57764 23974 ft 433 kts 285°
2026-04-25 20:29 56.30104 -5.62914 24277 ft 434 kts 285°
2026-04-25 20:29 56.30990 -5.68123 24548 ft 437 kts 289°
2026-04-25 20:30 56.32202 -5.73167 24818 ft 439 kts 294°
2026-04-25 20:30 56.33558 -5.78110 25077 ft 442 kts 296°
2026-04-25 20:30 56.34989 -5.83026 25209 ft 444 kts 297°
2026-04-25 20:30 56.36461 -5.87928 25217 ft 444 kts 297°
2026-04-25 20:31 56.37944 -5.92804 25211 ft 444 kts 297°
2026-04-25 20:31 56.39431 -5.97694 25212 ft 444 kts 297°
2026-04-25 20:31 56.40912 -6.02588 25369 ft 445 kts 297°
2026-04-25 20:31 56.42395 -6.07519 25633 ft 447 kts 297°
2026-04-25 20:32 56.43874 -6.12464 25884 ft 449 kts 296°
2026-04-25 20:32 56.45357 -6.17444 26113 ft 451 kts 296°
2026-04-25 20:32 56.46846 -6.22465 26310 ft 454 kts 296°
2026-04-25 20:32 56.48337 -6.27505 26532 ft 455 kts 296°
2026-04-25 20:33 56.49830 -6.32571 26733 ft 458 kts 296°
2026-04-25 20:33 56.51331 -6.37675 26920 ft 460 kts 296°
2026-04-25 20:33 56.52839 -6.42799 27089 ft 463 kts 296°
2026-04-25 20:33 56.53861 -6.46280 27232 ft 464 kts 296°
2026-04-25 20:34 56.55878 -6.53157 27496 ft 467 kts 296°
2026-04-25 20:34 56.57399 -6.58363 27703 ft 469 kts 296°
2026-04-25 20:34 56.58928 -6.63607 27895 ft 471 kts 296°
2026-04-25 20:34 56.60459 -6.68873 28082 ft 473 kts 296°
2026-04-25 20:35 56.61992 -6.74154 28191 ft 472 kts 296°
2026-04-25 20:35 56.63512 -6.79399 28196 ft 468 kts 296°
2026-04-25 20:35 56.66532 -6.89858 28192 ft 467 kts 295°
2026-04-25 20:36 56.69545 -7.00355 28193 ft 468 kts 295°
2026-04-25 20:36 56.72550 -7.10870 28193 ft 469 kts 295°
2026-04-25 20:37 56.75554 -7.21429 28193 ft 469 kts 295°
2026-04-25 20:37 56.78548 -7.31996 28192 ft 470 kts 295°
2026-04-25 20:38 56.81541 -7.42619 28192 ft 471 kts 295°
2026-04-25 20:38 56.84511 -7.53204 28192 ft 471 kts 295°
2026-04-25 20:39 56.87491 -7.63868 28187 ft 468 kts 295°
2026-04-25 20:39 56.88949 -7.69095 28181 ft 456 kts 295°
2026-04-25 20:39 56.89436 -7.70841 28183 ft 452 kts 295°
2026-04-25 20:40 56.93191 -7.84389 28184 ft 448 kts 294°
2026-04-25 20:40 56.96000 -7.94594 28184 ft 449 kts 294°
2026-04-25 20:41 56.98780 -8.04721 28182 ft 436 kts 294°
2026-04-25 20:41 57.01489 -8.14623 28183 ft 433 kts 294°
2026-04-25 20:42 57.04187 -8.24546 28183 ft 435 kts 294°
2026-04-25 20:42 57.06885 -8.34514 28184 ft 435 kts 293°
2026-04-25 20:43 57.09558 -8.44430 28184 ft 435 kts 293°
2026-04-25 20:43 57.12239 -8.54417 28183 ft 436 kts 293°
2026-04-25 20:44 57.14916 -8.64438 28184 ft 436 kts 293°
2026-04-25 20:44 57.17582 -8.74473 28184 ft 436 kts 293°
2026-04-25 20:45 57.20248 -8.84539 28183 ft 437 kts 293°
2026-04-25 20:45 57.22910 -8.94624 28183 ft 437 kts 293°
2026-04-25 20:46 57.25558 -9.04704 28183 ft 436 kts 293°
2026-04-25 20:46 57.28201 -9.14811 28183 ft 437 kts 292°
2026-04-25 20:47 57.30839 -9.24953 28183 ft 437 kts 292°
2026-04-25 20:47 57.33453 -9.35046 28183 ft 438 kts 292°
2026-04-25 20:48 57.36080 -9.45229 28183 ft 438 kts 292°
2026-04-25 20:48 57.38700 -9.55432 28183 ft 439 kts 292°
2026-04-25 20:49 57.41314 -9.65664 28183 ft 439 kts 292°
2026-04-25 20:49 57.43940 -9.75921 28183 ft 440 kts 292°
2026-04-25 20:50 57.46557 -9.86214 28183 ft 441 kts 292°
2026-04-25 20:50 57.49150 -9.96548 28183 ft 441 kts 291°
2026-04-25 20:51 57.51155 -10.05270 28192 ft 440 kts 287°
2026-04-25 20:51 57.53239 -10.15958 28192 ft 438 kts 285°
2026-04-25 20:52 57.54923 -10.24894 28196 ft 445 kts 287°
2026-04-25 20:52 57.57433 -10.37833 28194 ft 462 kts 287°
2026-04-25 20:53 57.59653 -10.49274 28193 ft 476 kts 287°
2026-04-25 20:53 57.61899 -10.60948 28192 ft 478 kts 287°
2026-04-25 20:54 57.64125 -10.72623 28193 ft 476 kts 287°
2026-04-25 20:54 57.66326 -10.84273 28193 ft 474 kts 287°
2026-04-25 20:55 57.68510 -10.95897 28192 ft 473 kts 287°
2026-04-25 20:55 57.70680 -11.07505 28193 ft 472 kts 286°
2026-04-25 20:56 57.72818 -11.19024 28193 ft 470 kts 286°
2026-04-25 20:56 57.74948 -11.30576 28192 ft 469 kts 286°
2026-04-25 20:57 57.77068 -11.42130 28192 ft 468 kts 286°
2026-04-25 20:57 57.79171 -11.53661 28193 ft 467 kts 286°
2026-04-25 20:58 57.81263 -11.65199 28192 ft 466 kts 286°
2026-04-25 20:58 57.83328 -11.76661 28193 ft 466 kts 286°
2026-04-25 20:59 57.85390 -11.88188 28202 ft 466 kts 285°
2026-04-25 20:59 57.87443 -11.99733 28202 ft 466 kts 285°
2026-04-25 21:00 57.89138 -12.09321 28202 ft 465 kts 285°
2026-04-25 21:01 57.92522 -12.28614 28193 ft 465 kts 285°
2026-04-25 21:01 57.94538 -12.40198 28192 ft 465 kts 285°
2026-04-25 21:02 57.96542 -12.51785 28193 ft 465 kts 285°
2026-04-25 21:02 57.98536 -12.63382 28193 ft 465 kts 285°
2026-04-25 21:03 58.00504 -12.74916 28193 ft 465 kts 285°
2026-04-25 21:03 58.02480 -12.86576 28193 ft 468 kts 284°
2026-04-25 21:04 58.04447 -12.98244 28192 ft 464 kts 284°
2026-04-25 21:04 58.06388 -13.09841 28193 ft 462 kts 284°
2026-04-25 21:05 58.08315 -13.21429 28193 ft 462 kts 283°
2026-04-25 21:05 58.10230 -13.33013 28193 ft 461 kts 283°
2026-04-25 21:06 58.12128 -13.44585 28192 ft 460 kts 283°
2026-04-25 21:06 58.14009 -13.56138 28192 ft 459 kts 283°
2026-04-25 21:07 58.15879 -13.67680 28193 ft 458 kts 283°
2026-04-25 21:07 58.17738 -13.79211 28193 ft 457 kts 283°
2026-04-25 21:08 58.19569 -13.90652 28192 ft 456 kts 282°
2026-04-25 21:08 58.21399 -14.02177 28193 ft 456 kts 282°
2026-04-25 21:09 58.24114 -14.19465 28193 ft 456 kts 282°
2026-04-25 21:09 58.25918 -14.31023 28193 ft 457 kts 282°
2026-04-25 21:10 58.27717 -14.42616 28189 ft 457 kts 282°
2026-04-25 21:10 58.29506 -14.54231 28167 ft 458 kts 282°
2026-04-25 21:11 58.31277 -14.65806 28174 ft 459 kts 282°
2026-04-25 21:11 58.33053 -14.77503 28165 ft 461 kts 281°
2026-04-25 21:12 58.34826 -14.89261 28164 ft 462 kts 281°
2026-04-25 21:12 58.36292 -14.99043 28165 ft 463 kts 281°
2026-04-25 21:13 58.38343 -15.12834 28159 ft 463 kts 281°
2026-04-25 21:13 58.40092 -15.24679 28155 ft 464 kts 281°
2026-04-25 21:14 58.41827 -15.36516 28160 ft 463 kts 280°
2026-04-25 21:14 58.43538 -15.48262 28153 ft 462 kts 280°
2026-04-25 21:15 58.45246 -15.60083 28153 ft 461 kts 280°